Regional Weather Roundup
Issued by NWS

Home | Current Version | Previous Version | Graphics & Text | Print | Product List | Glossary On
Versions: 1 2 3 4 5 6 7 8 9 10 11 12 13 14 15 16 17 18 19 20 21 22 23 24 25 26 27 28 29 30 31 32 33 34 35 36 37 38 39 40 41 42 43 44 45 46 47 48 49 50
000
ASUS43 KLMK 231202
RWRKY
KENTUCKY REGIONAL WEATHER ROUNDUP
NATIONAL WEATHER SERVICE LOUISVILLE KY
800 AM EDT THU OCT 23 2014

NOTE "FAIR" INDICATES FEW OR NO CLOUDS BELOW 12,000 FEET
WITH NO SIGNIFICANT WEATHER AND/OR OBSTRUCTIONS TO VISIBILITY.

KYZ001>023-026-027-061>063-070>075-231300-
WESTERN AND SOUTH CENTRAL KENTUCKY

CITY           SKY/WX    TMP DP  RH WIND       PRES   REMARKS
PADUCAH        CLEAR     36  35  96 CALM      30.21F FOG
HENDERSON      CLEAR    N/A N/A N/A E3        30.24F
OWENSBORO      CLEAR     38  36  92 CALM      30.25S
HOPKINSVILLE   CLEAR     39  39 100 E2        30.22F
BOWLING GREEN  FOG       36  34  92 CALM      30.25S VSB 1/4
GLASGOW        CLEAR     36  36 100 CALM      30.24S FOG
$$

KYZ024-025-028>034-038-045-046-053-231300-
NORTH CENTRAL KENTUCKY

CITY           SKY/WX    TMP DP  RH WIND       PRES   REMARKS
LOUISVILLE/SDF PTCLDY    40  37  89 SW6       30.26S
LOUISVILLE/LOU CLEAR     38  36  92 CALM      30.26F
FORT KNOX      CLEAR     35  33  95 CALM      30.24S
$$

KYZ035>037-039>044-047>052-055>060-089>105-231300-
NORTHEAST KENTUCKY

CITY           SKY/WX    TMP DP  RH WIND       PRES   REMARKS
LEXINGTON      CLOUDY    48  39  71 E6        30.25S
COVINGTON      CLEAR     39  37  92 CALM      30.25S FOG
FRANKFORT      CLEAR     40  37  89 CALM      30.24F
$$

KYZ054-064>069-076>088-106>120-231300-
SOUTHEAST KENTUCKY

CITY           SKY/WX    TMP DP  RH WIND       PRES   REMARKS
JACKSON        CLOUDY    45  39  79 CALM      30.22S
LONDON         CLOUDY    48  39  71 NE7       30.24S
SOMERSET       CLOUDY    46  37  71 NE5       30.25F
MIDDLESBORO    CLOUDY    47  38  71 NE5       30.24R
MONTICELLO     CLOUDY    46  42  86 CALM      30.25S
$$




USA.gov is the U.S. government's official web portal to all federal, state and local government web resources and services.